Tracking 18980 objects as of 19-Feb-2018
HD Live streaming from Space Station
objects crossing your sky now

GLOBALSTAR M035

Track GLOBALSTAR M035 now!
10-day predictions
GLOBALSTAR M035 is classified as:


NORAD ID: 25851
Int'l Code: 1999-037A
Perigee: 2,134.8 km
Apogee: 2,157.3 km
Inclination: 52.0 °
Period: 130.4 minutes
Semi major axis: 8517 km
RCS: 2.2769 m2 (large)
Launch date: July 10, 1999
Source: Globalstar (GLOB)
Launch site: AIR FORCE EASTERN TEST RANGE (AFETR)
aabbcc
Your satellite tracking list
Your tracking list is empty




NASA's NSSDC Master Catalog

Two Line Element Set (TLE):
1 25851U 99037A   18049.95640708 -.00000041 +00000-0 +86767-3 0  9993
2 25851 051.9923 260.7805 0013184 332.0915 173.6317 11.04506525800645
Source of the keplerian elements: AFSPC